sat.trackr.live / text

‹ back to catalog

STARLINK-4263

NORAD 53010 · 2022-076AA

PAYLOAD ACTIVE UNKNOWN

§ Identity

Operator
Country
US
Launch date
2022-07-07
Launch site
AFETR
Launch vehicle
Mass (kg)
RCS (m²)

Purposes: comms

External: N2YO · Heavens-Above · Gunter

§ Orbital elements

Epoch: 2026-09-20T01:35:00.258144Z

Period
93.85 min
Inclination
53.1591°
Eccentricity
0.0001107
Mean motion
15.34387972 rev/d
Perigee alt
462.0 km
Apogee alt
463.5 km
Semi-major
6,840.9 km
B*
-1.4291e-6
RAAN
286.0983°
Arg perigee
89.8708°
Mean anomaly
270.2421°
Rev number
23,240

§ Raw data

STARLINK-42631 53010U 22076AA  26263.06597521 -.00000424  00000+0 -14291-5 0  99932 53010  53.1591 286.0983 0001107  89.8708 270.2421 15.34387972232408

JSON: /api/v1/satellites/53010 · /tle

For live sub-satellite position, see the globe view (requires WebGL).

§ Visibility from observer

Set your observer location to see the next 7 days of passes ≥ 10°. The values pass through the URL so the page stays shareable.

No JS? Fill the form by hand. The geolocation button needs JavaScript.